Date,TemperatureHighF,TemperatureAvgF,TemperatureLowF,DewpointHighF,DewpointAvgF,DewpointLowF,HumidityHigh,HumidityAvg,HumidityLow,PressureMaxIn,PressureMinIn,WindSpeedMaxMPH,WindSpeedAvgMPH,GustSpeedMaxMPH,PrecipitationSumIn
2012-1-1,65.8,53.9,43.9,54.6,41.8,34.8,94,65,41,30.11,29.81,7,2,13,0.07
2012-1-2,49.5,39.9,29.1,35.5,18.1,10.4,60,42,24,30.00,29.88,6,2,10,0.03
2012-1-3,34.3,27.1,19.8,14.9,7.9,0.7,61,45,26,30.27,29.97,7,2,15,0.00
2012-1-4,43.2,30.4,18.3,12.9,9.0,4.7,68,44,22,30.32,30.00,5,1,13,0.00
2012-1-5,54.7,43.8,32.7,26.3,20.5,9.1,51,40,27,30.05,29.96,4,1,8,0.00
2012-1-6,65.5,52.7,40.6,31.1,27.7,24.8,54,39,24,30.05,29.90,4,1,8,0.00
2012-1-7,70.9,56.6,41.4,45.1,37.4,28.9,66,49,36,30.02,29.88,5,1,13,0.00
2012-1-8,56.8,52.9,45.7,44.4,35.7,30.0,78,53,37,30.22,30.02,4,0,8,0.02
2012-1-9,45.7,42.4,41.2,42.7,41.5,39.0,99,97,78,30.22,30.02,4,1,6,0.14
2012-1-10,59.7,48.0,40.6,46.5,39.9,31.7,99,77,36,30.08,29.97,3,0,6,0.01
2012-1-11,57.9,49.3,45.0,57.6,46.3,39.7,99,89,78,29.97,29.47,7,2,9,0.21
2012-1-12,59.2,51.2,43.7,50.3,46.8,43.4,99,86,68,29.62,29.46,5,1,10,0.01
2012-1-13,52.9,38.0,28.8,47.5,20.4,15.5,84,49,36,30.00,29.46,9,3,17,0.00
2012-1-14,44.4,34.9,24.8,20.3,17.1,12.4,76,50,28,30.14,29.99,4,1,9,0.00
2012-1-15,42.6,34.9,28.2,28.0,21.4,17.3,86,59,40,30.50,30.06,4,1,8,0.00
2012-1-16,46.4,37.0,27.5,32.3,22.1,16.5,66,55,39,30.54,30.27,6,1,9,0.00
2012-1-17,63.7,53.1,43.9,56.2,44.6,32.3,99,73,61,30.27,29.79,8,2,16,0.06
2012-1-18,56.5,45.5,33.4,56.2,31.2,19.1,99,60,32,30.09,29.81,5,1,12,0.00
2012-1-19,48.0,37.2,24.8,29.9,21.9,14.7,67,55,38,30.17,29.99,5,1,8,0.00
2012-1-20,55.6,45.6,36.3,44.5,34.7,28.7,99,68,41,30.12,30.01,4,1,8,0.09
2012-1-21,52.9,47.1,33.8,52.6,46.7,32.0,99,99,93,30.15,29.81,4,1,8,0.17
2012-1-22,35.1,33.2,31.3,34.8,32.5,29.5,99,97,91,30.34,30.15,4,0,8,0.00
2012-1-23,51.8,40.4,34.3,51.5,40.2,34.1,99,99,99,30.26,29.97,4,1,6,0.01
2012-1-24,62.4,52.3,44.8,54.4,47.9,41.8,99,87,55,30.18,29.98,4,1,7,0.00
2012-1-25,62.1,50.2,38.5,41.8,35.1,31.1,91,59,34,30.30,30.15,5,0,8,0.00
2012-1-26,68.7,55.9,44.6,61.0,48.6,33.4,96,77,54,30.15,29.73,5,2,13,0.00
2012-1-27,67.6,59.1,40.8,62.0,50.2,32.5,99,75,41,29.99,29.56,8,2,17,0.31
2012-1-28,61.0,47.2,33.3,37.6,32.6,23.1,84,59,38,30.17,29.97,4,1,8,0.00
2012-1-29,52.5,42.7,30.6,23.4,10.7,-4.8,58,30,10,30.32,30.17,4,1,8,0.00
2012-1-30,59.9,47.9,37.0,22.3,15.6,8.6,40,28,17,30.38,30.20,4,1,8,0.00
2012-1-31,68.5,53.6,39.4,29.1,24.7,17.1,53,34,16,30.32,30.18,5,1,10,0.00
2012-2-1,68.7,58.0,52.3,53.3,39.7,27.4,97,52,36,30.21,30.02,5,1,10,0.05
2012-2-2,69.1,57.2,45.5,55.4,44.6,28.1,99,68,30,30.27,29.94,5,1,10,0.03
2012-2-3,57.7,47.2,38.8,32.9,29.7,26.3,69,52,32,30.46,30.27,6,1,8,0.00
2012-2-4,54.1,46.6,40.8,49.0,40.1,30.5,99,79,53,30.33,30.00,4,0,7,0.13
2012-2-5,48.0,41.3,39.7,47.8,41.0,39.5,99,99,99,30.08,29.95,2,0,4,0.12
2012-2-6,39.7,39.7,39.7,39.5,39.5,39.5,99,99,99,30.08,30.08,0,0,1,0.00
2012-2-7,48.9,40.9,39.2,39.5,37.6,28.4,99,90,50,30.12,30.08,1,0,2,0.00
2012-2-8,50.0,39.8,31.8,37.7,32.3,25.9,90,75,60,30.16,30.06,2,0,6,0.00
2012-2-9,50.4,40.0,30.6,30.4,27.1,23.5,89,63,36,30.25,30.12,4,0,7,0.00
2012-2-10,47.5,42.0,33.8,37.0,32.7,26.9,81,70,60,30.17,29.83,3,1,6,0.00
2012-2-11,49.3,38.2,23.0,38.0,23.0,-1.1,91,58,27,29.98,29.66,8,2,15,0.00
2012-2-12,41.2,29.1,18.1,12.0,4.6,-2.1,51,36,21,30.18,29.98,7,2,13,0.00
2012-2-13,51.4,37.6,23.4,17.1,11.7,1.8,64,38,13,30.22,30.06,4,1,8,0.00
2012-2-14,55.8,46.7,38.1,40.1,28.8,13.3,70,50,31,30.08,29.94,6,1,12,0.00
2012-2-15,63.3,50.9,36.7,40.1,32.7,24.2,89,55,24,30.24,30.02,4,1,8,0.00
2012-2-16,58.1,50.2,45.5,51.3,41.5,29.1,99,75,44,30.24,29.96,7,1,10,0.39
2012-2-17,62.8,51.9,41.5,50.3,40.7,31.6,99,70,38,30.07,29.98,4,1,8,0.00
2012-2-18,64.6,53.4,41.7,39.4,31.9,20.6,61,46,22,30.08,29.91,5,0,9,0.00
2012-2-19,54.1,41.2,35.2,41.0,35.4,32.1,97,82,55,30.03,29.68,5,1,10,0.34
2012-2-20,35.2,35.2,35.2,34.5,34.5,34.5,97,97,97,29.78,29.78,2,2,4,0.00
2012-2-21,57.2,44.2,31.1,44.1,37.0,26.8,97,77,51,30.28,29.78,8,2,14,0.00
2012-2-22,68.9,56.4,44.4,47.4,43.7,34.3,91,66,29,29.94,29.53,9,1,15,0.00
2012-2-23,72.0,59.4,46.9,58.1,52.2,46.3,99,79,54,29.66,29.53,5,1,9,0.11
2012-2-24,78.1,65.7,57.0,64.2,55.6,39.7,96,71,52,29.63,29.41,9,3,21,0.24
2012-2-25,57.0,49.1,31.1,40.0,24.7,9.3,57,40,18,30.28,29.63,10,2,21,0.00
2012-2-26,52.5,39.5,26.6,22.8,17.7,7.1,68,44,21,30.45,30.08,5,1,9,0.00
2012-2-27,48.7,43.5,36.3,48.5,37.6,22.6,99,81,50,30.42,30.27,3,0,6,0.17
2012-2-28,64.2,52.8,40.6,50.7,40.0,32.9,99,67,33,30.39,30.25,5,1,8,0.00
2012-2-29,67.8,56.2,46.0,63.1,51.2,37.3,99,84,60,30.26,29.76,6,2,15,0.12
2012-3-1,79.7,67.6,55.4,63.6,47.1,23.3,99,57,15,29.85,29.68,8,2,13,0.00
2012-3-2,57.2,51.2,45.3,55.3,44.8,24.6,99,82,29,30.03,29.65,6,1,9,0.01
2012-3-3,61.7,55.9,48.7,60.0,52.1,26.4,99,88,60,30.00,29.51,5,1,8,0.67
2012-3-4,53.8,45.4,36.1,43.9,28.5,13.6,97,56,24,29.96,29.62,8,2,13,0.05
2012-3-5,53.4,41.0,32.4,30.6,21.3,13.4,70,48,24,30.45,29.85,9,2,15,0.00
2012-3-6,53.2,40.8,28.2,27.0,20.6,15.5,69,47,23,30.63,30.44,5,1,8,0.00
2012-3-7,69.1,53.0,36.9,49.4,39.2,27.0,78,61,39,30.59,30.40,7,2,11,0.00
2012-3-8,73.4,61.5,50.5,57.0,51.3,46.2,99,72,38,30.41,30.07,9,2,14,0.00
2012-3-9,60.4,54.7,40.1,58.7,42.7,25.2,99,68,30,30.27,30.02,4,1,10,0.15
2012-3-10,56.3,45.7,36.0,28.9,23.0,13.8,64,42,19,30.48,30.27,5,1,9,0.00
2012-3-11,63.3,49.7,35.2,30.6,24.8,17.9,72,42,18,30.54,30.39,5,1,8,0.00
2012-3-12,70.9,58.7,45.1,51.7,42.8,20.5,85,57,29,30.41,30.20,8,1,13,0.00
2012-3-13,79.3,66.1,57.2,60.8,55.8,48.8,90,71,44,30.21,30.05,5,1,11,0.00
2012-3-14,84.9,71.3,57.7,61.0,52.6,39.4,98,59,22,30.19,30.09,4,1,7,0.00
2012-3-15,83.5,70.9,61.5,60.5,52.7,45.6,82,55,28,30.23,29.70,4,1,9,0.04
2012-3-16,79.9,67.7,58.6,61.1,55.2,50.7,96,66,40,30.17,29.83,5,1,8,0.05
2012-3-17,78.1,66.9,56.5,66.0,60.3,56.2,99,81,53,30.23,30.12,5,1,8,0.02
2012-3-18,70.7,62.2,56.7,63.9,60.4,56.4,99,94,74,30.30,30.17,4,0,7,0.24
2012-3-19,79.2,65.1,53.2,67.8,60.3,53.0,99,86,53,30.23,30.08,4,1,6,0.24
2012-3-20,81.3,69.0,60.8,64.7,61.8,59.3,99,81,50,30.24,30.08,7,1,10,0.43
2012-3-21,67.5,63.9,61.2,62.9,61.8,60.9,99,93,81,30.24,30.22,3,0,5,0.18
2012-3-22,79.9,68.2,59.2,67.8,62.3,58.7,99,83,54,30.24,30.10,4,1,8,0.00
2012-3-23,84.6,71.8,60.6,68.3,62.2,58.3,99,75,43,30.12,29.91,6,1,11,0.00
2012-3-24,71.8,63.8,54.5,68.6,62.9,54.0,99,97,79,29.96,29.71,6,1,10,0.78
2012-3-25,60.4,55.8,55.0,60.0,53.7,23.6,99,95,27,30.51,29.72,2,0,4,0.00
2012-3-26,66.4,60.6,55.4,52.5,38.7,30.0,90,45,37,30.08,29.91,2,0,6,0.00
2012-3-27,61.2,50.6,39.6,31.3,23.2,15.6,51,36,18,30.32,30.08,4,0,6,0.00
2012-3-28,78.1,72.7,69.6,59.1,58.3,57.6,68,61,51,29.83,29.81,3,1,6,0.00
2012-3-29,82.4,71.2,61.0,58.7,42.1,19.5,79,43,10,29.90,29.77,5,1,9,0.00
2012-3-30,73.8,62.4,49.5,61.5,50.5,32.8,90,67,33,30.14,29.81,4,1,7,0.00
2012-3-31,75.2,65.4,60.6,66.9,61.9,58.4,99,89,61,29.83,29.66,3,0,5,0.11
2012-4-1,68.7,59.5,48.6,58.8,51.6,48.0,99,77,52,29.89,29.65,4,0,6,0.00
2012-4-2,72.7,65.4,55.4,61.5,49.5,36.6,81,59,28,29.92,29.58,5,1,8,0.00
2012-4-3,77.0,63.3,48.9,59.8,45.9,35.7,75,55,34,30.00,29.75,4,0,6,0.00
2012-4-4,84.9,68.6,61.2,67.2,61.1,56.5,99,79,44,29.79,29.59,3,0,10,0.14
2012-4-5,63.3,58.3,47.7,63.0,49.1,39.2,99,73,52,30.20,29.62,4,0,7,0.02
2012-4-6,81.9,51.1,44.4,47.1,39.6,27.1,99,70,29,30.10,29.80,4,0,8,0.05
2012-4-7,66.2,52.7,39.2,37.9,28.5,13.4,76,46,14,30.23,30.05,3,0,5,0.00
2012-4-8,75.0,60.2,45.5,44.6,32.3,19.4,59,38,17,30.11,29.86,3,0,6,0.00
2012-4-9,71.8,61.9,50.0,38.9,30.4,21.3,51,33,15,30.01,29.78,3,0,6,0.00
2012-4-10,72.7,62.5,51.3,37.0,30.5,21.3,55,32,16,30.08,29.71,4,1,12,0.00
2012-4-11,77.0,48.8,40.3,27.5,23.4,19.1,56,37,24,30.14,29.77,4,0,7,0.00
2012-4-12,61.2,48.2,34.9,34.1,28.2,23.6,71,48,25,30.18,30.07,3,0,6,0.00
2012-4-13,66.0,54.0,40.1,42.2,34.8,28.8,80,51,27,30.23,30.01,3,0,4,0.00
2012-4-14,73.6,62.0,49.6,50.0,39.9,36.2,69,46,27,30.29,30.12,4,0,7,0.00
2012-4-15,77.5,67.4,57.6,62.2,58.8,50.0,99,76,56,30.20,30.08,4,0,8,0.00
2012-4-16,82.0,71.7,60.6,62.1,59.6,57.5,91,68,45,30.16,30.03,3,0,7,0.00
2012-4-17,80.8,71.7,59.7,63.5,59.0,43.9,92,66,48,30.16,29.93,2,0,4,0.22
2012-4-18,63.3,57.6,53.6,54.9,52.8,51.3,99,85,68,30.15,30.02,2,0,4,0.13
2012-4-19,60.8,55.7,51.1,57.7,54.6,40.2,99,96,85,30.08,29.78,0,0,2,0.22
2012-4-20,70.0,61.9,53.2,60.8,57.8,53.0,99,87,69,30.00,29.83,2,0,4,0.44
2012-4-21,76.8,66.5,57.7,65.8,61.7,57.5,99,86,63,29.84,29.66,3,0,5,0.92
2012-4-22,60.4,53.5,47.3,60.2,53.3,47.0,99,99,99,29.71,29.44,2,0,4,0.50
2012-4-23,48.6,45.0,41.9,47.0,43.1,40.1,99,94,73,29.64,29.43,2,0,7,0.04
2012-4-24,61.7,50.7,40.1,40.9,33.0,24.9,93,55,25,29.76,29.62,2,0,6,0.00
2012-4-25,65.1,55.8,46.4,52.3,45.3,34.9,83,68,53,29.93,29.76,2,0,4,0.00
2012-4-26,72.1,62.5,55.0,67.0,60.2,52.1,99,93,75,29.86,29.72,2,0,8,0.34
2012-4-27,72.5,65.6,57.2,65.2,56.1,45.2,99,74,44,30.08,29.78,2,0,5,0.00
2012-4-28,57.9,55.1,51.4,50.3,47.6,45.0,93,76,66,30.19,30.06,2,0,5,0.00
2012-4-29,73.6,62.9,52.7,62.4,57.2,49.6,98,83,65,30.18,30.06,3,0,4,0.00
2012-4-30,74.3,66.2,59.5,68.3,63.6,59.0,99,92,77,30.23,30.07,2,0,4,0.00
2012-5-1,82.8,72.2,65.8,71.5,67.7,65.5,99,87,64,30.12,29.99,4,0,6,0.15
2012-5-2,86.0,76.0,66.6,75.3,69.7,66.1,99,83,59,30.09,30.01,2,0,4,0.00
2012-5-3,88.0,78.1,66.9,72.7,68.8,65.4,96,74,55,30.11,30.00,2,0,4,0.00
2012-5-4,85.5,76.2,65.1,71.2,67.4,54.4,99,76,55,30.02,29.87,1,0,4,0.00
2012-5-5,80.1,71.5,67.1,71.8,67.6,62.8,99,88,68,29.88,29.68,4,0,6,1.77
2012-5-6,70.0,66.6,50.4,68.6,65.9,50.1,99,98,90,30.01,29.46,2,0,4,0.01
2012-5-7,73.9,66.3,58.1,65.2,62.1,57.8,99,87,71,30.05,29.94,2,1,4,0.00
2012-5-8,75.2,68.8,60.6,66.4,62.6,28.6,97,81,70,29.99,29.68,3,0,6,0.00
2012-5-9,72.0,65.2,57.2,70.5,63.5,39.3,99,95,76,29.85,29.65,2,0,8,0.50
2012-5-10,68.7,60.4,52.0,57.7,52.4,47.6,99,77,50,29.94,29.67,3,0,8,0.00
2012-5-11,70.7,60.0,49.5,50.6,45.5,39.8,84,62,34,30.20,29.92,3,0,4,0.00
2012-5-12,74.8,64.8,53.4,55.0,49.5,43.3,82,59,38,30.32,30.19,2,0,4,0.00
2012-5-13,72.0,65.0,58.5,63.7,59.8,51.7,99,84,63,30.23,30.11,2,0,4,0.09
2012-5-14,70.3,64.6,61.3,67.7,64.1,61.1,99,98,88,30.11,29.92,2,1,5,0.58
2012-5-15,77.7,69.6,63.1,72.4,67.4,62.9,99,93,75,29.97,29.88,4,0,7,0.15
2012-5-16,84.9,71.3,65.7,72.4,67.8,65.4,99,90,70,30.06,29.85,2,0,4,0.00
2012-5-17,78.8,70.2,64.2,71.4,66.9,63.9,99,90,71,30.02,29.88,2,0,4,0.00
2012-5-18,73.4,66.1,58.6,64.8,56.1,50.3,99,73,47,30.08,30.01,2,0,4,0.00
2012-5-19,75.7,64.0,52.3,57.7,52.7,47.7,96,69,39,30.13,30.03,2,0,5,0.00
2012-5-20,80.1,67.2,55.0,63.3,57.5,52.5,93,73,42,30.09,29.91,2,0,6,0.00
2012-5-21,77.7,70.3,64.8,68.1,65.6,58.0,99,86,64,30.01,29.84,2,0,4,0.02
2012-5-22,79.7,70.6,63.0,72.1,66.9,62.7,99,89,67,29.87,29.76,2,0,2,0.00
2012-5-23,75.4,67.4,62.4,70.2,65.4,61.6,99,94,69,29.93,29.78,4,0,6,0.52
2012-5-24,81.1,70.3,63.3,74.4,68.2,63.0,99,94,70,30.03,29.91,2,0,4,0.07
2012-5-25,84.7,73.4,62.6,75.4,69.1,62.3,99,88,66,30.12,30.02,2,0,2,0.01
2012-5-26,85.3,74.7,66.0,72.2,69.4,52.8,99,85,60,30.30,30.05,2,0,5,0.00
2012-5-27,81.5,73.4,65.7,73.7,70.3,65.4,99,91,71,30.13,30.04,2,0,4,0.00
2012-5-28,84.9,75.9,61.5,73.9,71.7,61.2,99,88,64,30.08,29.96,2,0,4,0.00
2012-5-29,84.9,75.0,70.3,75.1,72.0,70.0,99,91,65,30.00,29.81,2,0,4,0.04
2012-5-30,79.2,72.6,69.8,74.5,68.2,61.6,99,87,60,29.93,29.70,2,0,5,0.11
2012-5-31,86.5,75.5,66.4,68.3,65.2,61.3,96,72,51,29.91,29.77,2,0,4,0.25
2012-6-1,82.8,71.1,63.7,75.1,68.9,63.4,99,94,66,29.88,29.66,3,0,6,0.26
2012-6-2,72.3,63.6,54.3,63.8,57.3,53.0,99,82,57,29.88,29.75,2,0,4,0.00
2012-6-3,76.6,66.6,54.3,60.4,56.2,50.9,91,71,49,30.05,29.77,2,0,4,0.00
2012-6-4,80.1,71.4,64.2,65.8,59.7,56.4,84,68,45,30.03,29.63,2,0,5,0.00
2012-6-5,74.1,65.2,59.4,61.1,58.5,54.7,99,80,54,29.92,29.70,2,0,4,0.01
2012-6-6,70.2,61.7,55.6,61.4,57.9,55.3,99,88,63,29.99,29.81,3,0,5,0.15
2012-6-7,79.5,66.1,55.8,62.8,58.8,55.5,99,80,55,30.03,29.94,2,0,4,0.00
2012-6-9,81.5,76.6,67.5,61.5,60.0,57.6,73,57,48,30.04,29.97,1,0,2,0.00
2012-6-10,86.5,75.5,66.6,67.5,62.9,57.1,88,67,41,30.14,30.03,2,0,4,0.00
2012-6-11,81.1,73.0,69.6,75.5,70.2,63.0,99,92,70,30.14,30.01,2,0,4,0.38
2012-6-12,78.3,72.8,69.3,76.9,72.4,69.0,99,98,91,30.02,29.83,2,0,4,0.04
2012-6-13,81.0,72.5,66.0,73.5,67.5,55.2,99,86,64,30.00,29.84,2,0,4,0.33
2012-6-14,75.9,67.6,57.6,68.0,62.1,54.1,95,83,70,30.14,30.00,2,0,4,0.00
2012-6-15,77.7,68.2,58.8,65.0,61.8,57.9,99,82,54,30.21,30.12,2,0,4,0.00
2012-6-16,79.7,67.6,56.1,60.7,57.3,53.5,95,72,42,30.26,30.12,2,0,5,0.00
2012-6-17,77.5,67.3,55.8,62.3,58.8,54.3,99,76,54,30.17,30.00,2,0,4,0.00
2012-6-18,81.9,72.1,63.0,69.7,65.6,58.4,99,81,64,30.08,30.00,3,0,5,0.00
2012-6-19,88.2,77.3,68.0,73.6,69.5,66.2,95,78,57,30.13,30.06,2,0,4,0.00
2012-6-20,92.3,80.6,71.8,75.4,71.6,68.4,94,76,47,30.14,30.03,2,0,4,0.00
2012-6-21,93.6,81.9,73.2,77.9,72.9,69.5,93,75,48,30.03,29.86,2,0,4,0.00
2012-6-22,93.7,78.5,70.5,76.1,71.8,68.8,99,82,51,29.90,29.77,2,0,4,1.07
2012-6-23,83.3,75.6,68.7,76.5,72.0,68.4,99,89,71,29.99,29.85,1,0,2,0.00
2012-6-24,87.3,78.4,70.0,75.8,70.7,64.8,99,80,48,30.00,29.88,2,0,5,0.00
2012-6-25,89.1,79.3,72.5,76.5,72.6,67.6,99,81,57,29.90,29.66,2,0,4,0.00
2012-6-26,78.3,71.2,62.8,69.0,53.8,47.7,82,56,35,29.89,29.77,2,0,4,0.00
2012-6-27,84.7,71.5,57.6,60.3,54.8,51.3,87,59,32,29.96,29.85,1,0,4,0.00
2012-6-28,92.7,79.3,67.1,67.1,59.8,53.0,71,53,32,29.99,29.84,1,0,2,0.00
2012-6-29,100.6,86.1,72.5,77.9,69.9,61.7,75,60,40,29.88,29.73,2,0,6,0.00
2012-6-30,98.4,84.7,71.6,74.2,69.2,63.0,83,61,41,29.89,29.79,2,0,4,0.00
2012-7-1,98.6,83.0,74.8,79.9,68.9,57.2,96,64,40,29.97,29.82,2,0,4,0.06
2012-7-2,91.2,80.8,70.7,72.3,67.5,64.0,84,65,42,29.99,29.91,2,0,4,0.00
2012-7-3,96.1,83.4,73.2,73.8,69.9,66.6,87,66,39,29.99,29.87,1,0,4,0.00
2012-7-4,95.7,82.6,74.8,74.8,70.8,68.5,85,69,44,29.95,29.87,2,0,4,0.00
2012-7-5,98.6,81.3,73.2,77.8,72.4,64.0,90,75,39,29.92,29.82,2,0,4,0.13
2012-7-6,95.9,80.4,72.9,76.6,72.5,68.3,99,79,49,29.94,29.85,2,0,4,0.12
2012-7-7,96.1,84.4,73.6,80.2,74.8,71.5,99,75,49,29.97,29.87,1,0,2,0.00
2012-7-8,99.7,87.7,79.2,77.4,72.4,67.9,80,62,41,29.93,29.79,1,0,2,0.00
2012-7-9,94.1,81.6,73.2,76.1,73.2,71.1,99,77,52,29.96,29.82,4,0,7,0.22
2012-7-10,80.8,75.8,72.5,78.8,74.9,72.2,99,97,86,30.00,29.91,2,0,4,0.18
2012-7-11,78.8,70.7,65.3,76.2,70.2,65.0,99,99,91,30.11,30.00,0,0,1,1.29
2012-7-12,79.5,72.6,66.0,74.3,70.4,65.7,99,93,74,30.15,30.08,0,0,1,0.00
2012-7-13,83.7,76.0,70.3,76.7,73.8,70.0,99,93,75,30.18,30.10,1,0,4,0.00
2012-7-14,86.2,78.1,73.6,78.6,75.2,73.3,99,92,72,30.21,30.08,2,0,5,0.44
2012-7-15,88.5,79.9,72.9,80.6,75.4,72.6,99,87,67,30.18,30.03,1,0,2,0.00
2012-7-16,90.0,80.2,73.8,79.4,75.0,72.7,99,85,58,30.06,29.89,1,0,2,0.00
2012-7-17,92.8,81.5,72.5,78.8,75.5,72.2,99,84,52,29.94,29.85,2,0,2,0.00
2012-7-18,91.8,83.2,74.5,80.8,76.3,73.8,99,81,62,29.96,29.86,1,0,2,0.00
2012-7-19,91.2,81.3,74.7,76.8,73.8,71.8,97,79,58,29.99,29.89,2,0,4,0.00
2012-7-20,88.2,78.8,73.4,78.5,74.9,72.1,99,89,66,29.93,29.85,2,0,4,0.13
2012-7-21,84.7,76.1,72.1,80.4,74.9,71.8,99,96,79,30.08,29.91,2,0,4,0.85
2012-7-22,80.2,75.1,72.0,79.6,74.7,71.7,99,99,96,30.17,30.04,1,0,2,0.05
2012-7-23,90.7,78.9,73.0,81.9,76.0,72.1,99,92,64,30.14,29.99,2,0,4,0.31
2012-7-24,90.3,82.8,74.1,82.5,78.1,73.8,99,87,74,30.00,29.80,1,0,4,0.00
2012-7-25,89.8,79.0,32.0,80.4,71.3,32.0,100,79,74,29.95,29.84,1,1,2,0.00
2012-7-26,32.0,32.0,32.0,32.0,32.0,32.0,100,100,100,29.90,29.75,0,0,0,0.00
2012-7-27,32.0,32.0,32.0,32.0,32.0,32.0,100,100,100,29.91,29.80,0,0,0,0.00
2012-7-28,32.0,32.0,32.0,32.0,32.0,32.0,100,100,100,29.96,29.89,0,0,0,0.00
2012-7-29,86.2,48.1,32.0,71.8,43.5,32.0,100,88,47,29.99,29.91,1,0,2,0.00
2012-7-30,87.4,76.8,70.5,77.3,70.7,66.1,99,83,50,30.01,29.92,2,0,4,0.00
2012-7-31,84.6,75.4,69.6,75.6,70.7,67.8,99,87,60,29.98,29.85,2,0,4,0.00
2012-8-1,86.7,77.7,70.3,75.8,70.3,63.3,99,80,53,29.91,29.80,3,0,6,0.00
2012-8-2,89.6,79.2,72.3,74.2,67.7,61.3,95,70,45,30.13,29.83,3,0,5,0.00
2012-8-3,88.9,79.0,68.9,74.4,68.0,63.3,99,71,44,30.06,29.91,2,0,4,0.00
2012-8-4,89.2,81.0,73.8,76.0,69.4,64.0,99,71,45,30.18,30.05,2,0,4,0.00
2012-8-5,87.6,79.3,73.0,76.7,72.1,67.9,99,80,55,30.21,30.08,2,0,5,0.00
2012-8-6,88.3,79.0,72.9,77.6,72.7,67.8,99,83,51,30.11,29.98,2,0,4,0.01
2012-8-7,81.5,75.1,72.1,78.7,74.6,71.8,99,98,89,30.03,29.94,1,0,2,0.15
2012-8-8,85.3,75.3,69.6,78.2,73.3,68.0,99,94,70,29.98,29.89,2,0,5,0.01
2012-8-9,85.3,76.3,67.8,78.5,71.3,67.5,99,86,60,29.98,29.84,2,0,2,0.00
2012-8-10,79.9,74.3,70.2,77.1,73.0,69.9,99,96,85,29.86,29.79,3,0,6,0.43
2012-8-11,81.9,73.7,69.3,78.3,73.2,69.0,99,98,81,29.93,29.82,3,0,6,1.38
2012-8-12,83.1,74.8,68.9,74.8,68.5,62.4,99,83,51,29.99,29.90,1,0,2,0.00
2012-8-13,85.8,76.2,66.2,71.6,65.3,60.1,99,71,44,30.02,29.91,2,0,4,0.00
2012-8-14,86.0,77.7,68.0,68.4,64.3,58.3,81,64,47,29.92,29.81,2,0,4,0.00
2012-8-15,84.2,76.9,71.8,75.5,69.9,67.0,93,79,61,29.91,29.83,1,0,2,0.00
2012-8-16,85.6,75.3,67.3,70.9,65.2,59.1,99,74,43,30.00,29.90,2,0,4,0.00
2012-8-17,86.5,77.0,69.3,69.7,65.2,59.8,94,69,49,29.96,29.79,2,0,4,0.00
2012-8-18,82.4,74.6,68.2,71.2,67.0,63.8,99,79,55,29.89,29.80,2,0,4,0.00
2012-8-19,82.4,69.6,67.8,70.8,68.4,64.8,99,96,76,30.20,29.81,2,0,4,0.77
2012-8-20,75.7,70.0,66.4,73.7,69.3,65.9,99,98,86,29.95,29.82,1,0,2,0.08
2012-8-21,80.1,70.8,66.4,73.7,69.1,66.1,99,95,70,30.04,29.94,2,0,2,0.33
2012-8-22,77.7,72.0,68.0,75.1,71.3,67.7,99,98,86,30.10,30.02,1,0,2,0.00
2012-8-23,82.9,73.7,67.6,74.0,68.2,62.9,99,85,53,30.13,30.06,2,0,4,0.00
2012-8-24,75.9,70.4,65.5,72.4,67.2,63.9,99,90,70,30.14,30.07,1,0,4,0.00
2012-8-25,68.5,65.8,61.2,67.7,65.2,60.9,99,98,93,30.10,30.05,2,0,6,0.21
2012-8-26,79.9,70.9,64.8,71.8,68.1,64.5,99,91,70,30.17,30.07,1,0,4,0.02
2012-8-27,85.8,75.0,67.1,77.7,71.9,66.8,99,91,66,30.14,29.99,2,0,4,0.00
2012-8-28,86.7,77.5,71.4,79.0,74.3,71.1,99,91,68,30.01,29.87,2,0,4,0.17
2012-8-29,83.1,75.0,70.3,76.6,70.2,66.6,99,86,59,29.99,29.89,2,0,4,0.07
2012-8-30,86.0,76.9,67.1,76.5,69.7,66.2,99,80,54,30.13,29.90,2,0,4,0.00
2012-8-31,89.4,79.5,72.1,79.5,74.3,71.8,99,85,61,30.18,30.04,2,0,4,0.00
2012-9-1,88.9,80.5,74.5,79.8,74.4,69.8,99,83,55,30.11,30.01,2,0,4,0.00
2012-9-2,87.1,79.2,70.5,79.9,74.2,69.1,99,86,62,30.03,29.90,2,0,7,0.69
2012-9-3,84.4,73.9,70.5,80.5,73.2,70.2,99,98,83,30.03,29.94,8,0,10,1.29
2012-9-4,85.3,76.6,71.8,78.1,72.2,69.3,99,87,60,30.00,29.88,2,0,4,0.04
2012-9-5,83.8,76.9,71.6,78.7,73.3,71.3,99,90,68,29.92,29.82,2,0,6,0.00
2012-9-6,83.7,75.4,71.2,78.4,73.9,70.9,99,95,77,29.93,29.85,2,0,4,0.25
2012-9-7,82.8,74.7,69.8,76.2,71.5,69.4,99,90,66,29.96,29.83,2,0,4,0.01
2012-9-8,86.0,73.7,68.9,78.5,71.9,68.6,99,95,67,29.85,29.67,2,0,5,0.33
2012-9-9,76.3,67.0,61.3,68.6,60.7,54.5,99,82,48,29.95,29.79,2,0,4,0.01
2012-9-10,75.7,65.0,56.7,59.1,55.1,52.6,89,72,46,30.14,29.95,2,0,5,0.00
2012-9-11,76.3,65.2,56.3,58.0,54.3,48.7,92,70,43,30.28,29.98,2,0,4,0.00
2012-9-12,77.4,65.7,55.8,60.7,55.3,51.8,95,71,43,30.34,30.25,2,0,6,0.00
2012-9-13,77.5,65.6,54.1,62.9,56.5,51.9,98,75,44,30.34,30.22,2,0,4,0.00
2012-9-14,77.7,69.2,61.5,71.5,64.8,61.1,99,87,67,30.24,30.11,1,0,4,0.00
2012-9-15,77.7,69.1,63.0,67.5,63.5,57.7,99,83,61,30.16,30.08,2,0,4,0.00
2012-9-16,63.7,61.2,58.5,62.2,59.3,56.7,99,94,81,30.17,30.06,2,0,4,0.39
2012-9-17,75.0,67.1,59.7,72.1,66.3,59.4,99,98,87,30.09,29.91,2,0,4,0.00
2012-9-18,75.4,70.8,66.4,75.1,70.5,66.1,99,99,99,29.91,29.68,3,1,6,1.93
2012-9-19,69.8,64.4,58.1,67.9,59.9,54.4,99,86,61,30.11,29.80,2,0,4,0.02
2012-9-20,72.9,62.9,53.6,62.3,57.1,53.3,99,83,56,30.14,30.02,2,0,4,0.00
2012-9-21,78.1,68.1,60.3,65.4,60.1,54.7,88,76,58,30.07,29.95,2,0,4,0.00
2012-9-22,81.9,71.4,62.4,71.9,64.3,60.6,99,80,56,29.97,29.84,4,0,6,0.00
2012-9-23,71.2,64.3,55.0,66.7,50.0,39.4,94,62,32,30.10,29.93,2,0,4,0.00
2012-9-24,68.4,58.0,48.2,51.6,46.8,42.6,87,68,40,30.20,30.09,3,0,5,0.00
2012-9-25,72.9,63.1,53.8,58.0,51.9,46.6,78,68,49,30.22,30.10,2,0,5,0.00
2012-9-26,78.8,68.4,58.5,63.4,58.1,51.8,84,70,55,30.19,30.11,2,0,4,0.00
2012-9-27,80.8,71.0,61.7,63.8,58.9,56.3,85,67,46,30.16,30.05,2,0,4,0.00
2012-9-28,80.4,69.7,63.1,67.3,62.4,55.9,99,79,57,30.07,29.95,2,0,2,0.00
2012-9-29,65.8,62.3,59.0,65.6,62.0,58.7,99,99,99,29.97,29.86,2,0,4,0.24
2012-9-30,68.5,61.5,55.6,63.0,58.3,55.3,99,90,68,29.90,29.82,2,0,4,0.00
2012-10-1,62.6,61.0,59.0,62.3,60.7,58.7,99,99,93,29.91,29.83,2,0,5,0.06
2012-10-2,82.8,73.6,62.2,80.1,71.8,62.0,99,95,77,29.93,29.79,3,0,6,0.22
2012-10-3,81.0,75.3,72.3,77.4,72.2,68.1,99,91,72,30.13,29.93,2,0,4,0.00
2012-10-4,75.6,69.9,66.4,69.3,66.3,61.7,99,89,72,30.19,30.11,2,0,5,0.00
2012-10-5,76.5,67.3,58.3,63.1,59.0,55.3,96,77,48,30.15,29.99,1,0,4,0.00
2012-10-6,78.3,68.2,61.0,63.9,59.9,53.2,90,76,54,29.99,29.85,2,0,4,0.00
2012-10-7,62.8,52.2,48.4,55.2,51.2,47.6,99,96,71,30.11,29.94,3,0,6,0.76
2012-10-8,50.2,48.0,45.7,49.9,47.7,45.0,99,99,92,30.19,30.09,2,0,4,0.17
2012-10-9,56.1,50.4,45.9,55.8,50.2,45.6,99,99,99,30.13,30.03,2,0,4,0.01
2012-10-10,68.2,58.2,52.7,55.8,53.6,50.9,99,86,58,30.07,29.93,2,0,5,0.00
2012-10-11,63.3,54.4,45.5,50.9,42.5,37.9,87,66,42,30.27,30.07,2,0,4,0.00
2012-10-12,69.1,58.4,48.9,51.6,44.9,41.8,83,62,39,30.32,30.13,2,0,4,0.00
2012-10-13,62.4,52.5,41.5,46.4,41.3,35.8,85,67,46,30.43,30.30,2,0,6,0.00
2012-10-14,71.6,60.9,50.9,58.3,52.3,45.0,84,74,58,30.30,29.98,2,0,4,0.00
2012-10-15,68.0,63.1,55.2,67.7,61.3,50.5,99,94,81,29.99,29.67,2,0,4,0.24
2012-10-16,65.7,55.8,46.2,50.8,45.0,41.5,87,69,43,29.92,29.81,3,0,5,0.00
2012-10-17,68.4,58.6,52.0,49.9,45.5,41.6,78,63,38,29.97,29.88,2,0,4,0.00
2012-10-18,73.2,61.2,51.1,66.3,56.2,45.3,99,84,69,29.90,29.75,2,0,5,0.40
2012-10-19,72.9,65.3,57.4,67.9,53.1,30.7,99,71,26,29.75,29.64,3,0,9,0.07
2012-10-20,68.0,57.0,47.8,57.4,41.8,37.2,74,58,35,30.00,29.71,2,0,5,0.00
2012-10-21,64.0,54.0,45.1,44.6,40.5,36.9,77,61,38,30.11,29.92,3,0,5,0.00
2012-10-22,71.1,58.6,47.3,47.9,43.6,40.1,79,60,34,30.19,30.10,2,0,4,0.00
2012-10-23,77.2,65.3,55.4,52.9,47.9,43.5,72,54,37,30.15,30.06,2,0,5,0.00
2012-10-24,79.0,67.3,57.2,53.9,50.1,47.4,74,55,34,30.15,30.05,2,0,4,0.00
2012-10-25,77.4,67.6,58.8,58.5,53.9,49.7,77,62,46,30.14,30.06,2,0,5,0.00
2012-10-26,69.4,63.0,57.4,65.0,59.5,53.5,99,89,68,30.11,29.91,2,0,4,0.01
2012-10-27,65.5,62.7,60.6,62.9,57.9,52.6,99,85,69,29.91,29.68,4,1,10,0.00
2012-10-28,63.3,58.5,51.6,52.6,48.1,44.5,90,69,53,30.30,29.54,4,1,10,0.00
2012-10-29,51.6,44.6,39.9,48.8,42.1,36.6,99,91,71,29.55,29.21,6,3,15,0.52
2012-10-30,49.5,44.4,40.3,38.6,31.1,26.9,93,61,43,29.54,29.19,7,2,13,0.34
2012-10-31,53.1,45.7,37.9,34.5,31.7,29.5,76,59,41,29.72,29.53,4,1,8,0.00
2012-11-1,56.7,47.4,41.5,33.7,32.1,28.9,73,57,36,29.80,29.69,4,1,8,0.00
2012-11-2,59.2,47.3,39.9,36.0,29.9,24.1,70,52,31,29.93,29.78,3,1,7,0.00
2012-11-3,58.1,47.3,39.2,33.5,27.7,20.7,69,49,24,30.05,29.91,3,0,6,0.00
2012-11-4,52.5,46.7,40.3,38.7,35.1,30.3,81,64,51,30.06,29.93,4,0,7,0.02
2012-11-5,53.6,44.8,35.8,39.5,31.0,25.9,83,60,35,30.07,29.96,3,0,5,0.00
2012-11-6,43.9,38.9,33.1,31.4,27.9,25.9,81,65,49,30.10,29.88,2,0,4,0.00
2012-11-7,50.7,42.2,36.1,31.1,28.5,25.4,78,59,41,29.89,29.79,3,0,6,0.00
2012-11-8,59.7,46.4,36.0,31.4,19.2,1.3,79,42,10,30.07,29.89,3,1,7,0.00
2012-11-9,62.6,49.9,37.6,27.1,22.3,16.5,55,35,19,30.21,30.06,2,0,4,0.00
2012-11-10,71.2,58.5,46.8,33.4,25.5,15.3,48,31,12,30.34,30.20,2,0,6,0.00
2012-11-11,71.6,59.8,47.1,49.8,38.5,26.8,73,47,29,30.44,30.32,3,0,6,0.00
2012-11-12,71.4,62.5,53.4,59.7,55.1,49.3,95,78,57,30.39,30.14,3,1,6,0.00
2012-11-13,63.9,48.2,36.7,59.8,45.7,35.9,97,91,79,30.37,30.11,4,0,7,0.14
2012-11-14,48.9,39.3,30.9,35.9,30.0,27.1,97,72,44,30.44,30.33,3,0,7,0.01
2012-11-15,46.6,40.6,34.0,41.8,33.9,27.2,95,78,59,30.34,30.20,2,0,5,0.17
2012-11-16,54.5,45.2,38.5,41.2,35.7,30.3,94,72,42,30.34,30.22,3,0,6,0.00
2012-11-17,52.0,43.4,32.4,32.8,26.2,20.4,81,55,29,30.44,30.34,4,0,8,0.00
2012-11-18,55.4,49.2,43.0,41.1,38.6,30.8,78,67,58,30.42,30.31,6,1,10,0.00
2012-11-19,59.0,50.7,43.7,43.6,39.7,37.3,79,66,55,30.32,30.14,6,1,11,0.00
2012-11-20,59.5,49.2,41.7,45.2,40.0,36.3,83,71,52,30.14,30.01,4,0,6,0.00
2012-11-21,60.3,47.6,37.9,44.3,34.6,27.3,92,64,30,30.14,29.86,5,1,8,0.00
2012-11-22,61.5,47.2,34.3,32.5,20.6,5.4,72,40,11,30.21,30.11,4,1,8,0.00
2012-11-23,65.8,53.1,39.6,33.8,25.3,18.0,48,35,18,30.12,29.84,4,1,9,0.00
2012-11-24,65.8,42.5,28.2,29.0,15.5,4.4,55,35,16,30.29,29.85,5,2,11,0.00
2012-11-25,52.2,38.6,24.4,19.0,12.3,5.7,64,38,15,30.11,29.96,4,1,8,0.00
2012-11-26,67.8,51.9,36.3,19.9,12.4,4.2,45,24,10,30.15,30.02,4,1,6,0.00
2012-11-27,55.0,47.3,40.3,39.9,30.0,15.5,85,54,25,30.20,30.07,2,0,6,0.07
2012-11-28,54.3,42.4,35.2,36.1,28.1,19.1,85,60,33,30.34,30.19,24,1,24,0.01
2012-11-29,56.8,43.1,29.7,27.0,19.7,15.2,60,41,21,30.43,30.31,4,0,7,0.00
2012-11-30,63.7,50.1,40.1,30.5,26.9,23.5,58,43,23,30.35,30.24,5,1,9,0.00
2012-12-2,67.5,67.3,67.3,44.0,44.0,44.0,43,43,43,29.41,29.41,8,8,8,0.08
2012-12-16,58.6,56.3,54.0,54.3,52.5,48.4,98,87,77,29.86,29.16,8,3,8,0.07
2012-12-17,61.5,56.9,52.9,60.1,54.5,52.3,99,92,80,29.77,29.49,18,3,18,0.17
2012-12-18,63.7,53.5,39.6,54.9,43.0,28.4,99,71,36,29.76,29.50,14,3,14,0.01
2012-12-19,67.5,50.5,35.6,32.5,29.3,26.1,71,47,22,29.99,29.74,11,2,11,0.00
2012-12-20,65.5,47.7,40.6,65.1,38.1,24.1,99,70,48,30.03,29.36,19,6,19,0.17
2012-12-21,45.9,39.5,36.3,26.4,21.3,18.7,55,48,42,29.78,29.61,21,10,21,0.00
2012-12-22,51.6,40.7,34.5,21.7,17.4,10.2,53,40,23,30.07,29.78,18,6,18,0.00
2012-12-23,59.4,44.2,31.5,25.5,17.8,12.7,54,36,20,30.11,29.98,14,4,14,0.00
2012-12-24,49.1,46.7,43.7,44.6,35.8,25.2,87,67,42,30.01,29.86,12,3,12,0.02
2012-12-25,59.7,49.5,43.7,44.4,41.8,39.2,90,76,51,30.10,29.90,13,3,13,0.00
2012-12-26,46.4,41.1,36.3,42.4,38.0,32.5,96,89,72,30.07,29.44,17,6,17,1.32
2012-12-27,45.5,43.7,35.6,41.5,39.3,27.5,89,84,72,30.05,29.59,15,6,15,0.01
2012-12-28,45.5,45.5,45.5,41.5,41.5,41.5,86,86,86,30.16,29.98,8,2,8,0.00
2012-12-29,45.5,45.5,45.5,41.5,41.5,41.5,86,86,86,29.98,29.64,14,4,14,0.26
2012-12-30,38.8,34.2,31.8,19.6,14.4,-13.4,53,44,14,30.35,30.30,5,2,8,0.08
2012-12-31,53.8,40.6,28.8,26.8,19.9,12.2,59,44,23,30.33,29.98,17,4,17,0.78
2013-1-1,48.6,46.4,34.7,48.2,39.1,16.0,99,78,45,30.08,29.89,10,2,11,0.19